Content
SEND FEEDBACK

Daily
Averages
Monthly
Summary
Philippines

QUEZON CITY, PHILIPPINES


Home > Asia > Philippines
Elevation: 46 meters     Latitude: 14 39N     Longitude: 121 03E

WEATHER
 
SELECT A DAY
Number of Records: 177,041;   Date Range: 7/1/96 - 10/21/14
 
SHARE

PRINT THIS DATA

[ ← Previous Day ]
WEATHER ALMANAC - 7 APRIL, 2013
[ Next Day → ]
[ °F ]   °C
Weather ElementAverageHighLow
Temperature30.3 °C34 °C (3:00 pm)26 °C (5:00 am)
Dewpoint22.5 °C25 °C (7:00 pm)19 °C (3:00 pm)
Humidity62.6 %89 % (5:00 am)39 % (2:00 pm)
Barometer1006.4 hPa1009.1 hPa (9:00 am)1003.7 hPa (5:00 pm)
Wind Speed10.1 km/h18.5 km/h (12:00 pm)
Weather ElementAverage
Visibility9.8 km
Wind DirectionSSE (161.3 °)

Weather ElementTotal
Precipitation---
Cooling Degree Days11.7 (Base 18.3)
Growing Degree Days20 (Base 10)
Averaged from 31 records on 7 April, 2013
WEATHER CONDITIONS BREAKOUT
WIND DIRECTION BREAKOUT
WEATHER BY HOUR - 7 APRIL, 2013
[ °F ]   °C
Local TimeTemperatureDewpointHumidityBarometerVisibilityWind DirectionWind SpeedGust SpeedPrecipitationEventsConditions
1:00 AM28 °C24 °C79 %1006.1 hPa10 kmVariable1.9 km/hPartly Cloudy
2:00 AM27.8 °C24.4 °C76 %1006.4 hPa9.7 kmENE (60°)3.5 km/hScattered Clouds
2:00 AM28 °C24 °C79 %1006.1 hPa10 kmVariable3.7 km/hPartly Cloudy
3:00 AM28 °C24 °C79 %1005.1 hPa10 kmVariable3.7 km/hPartly Cloudy
4:00 AM27 °C24 °C84 %1005.1 hPa10 kmSSW (200°)5.6 km/hPartly Cloudy
5:00 AM26.1 °C24.4 °C88 %1005.8 hPa9.7 kmSW (220°)7.2 km/hScattered Clouds
5:00 AM26 °C24 °C89 %1006.1 hPa10 kmSSW (210°)3.7 km/hPartly Cloudy
6:00 AM26 °C24 °C89 %1006.1 hPa10 kmCalmPartly Cloudy
7:00 AM27 °C24 °C84 %1007.1 hPa10 kmVariable3.7 km/hPartly Cloudy
8:00 AM29.4 °C21.7 °C55 %1007.5 hPa9.7 kmNNE (20°)10.8 km/hHaze
8:00 AM30 °C22 °C62 %1008.1 hPa10 kmNNE (30°)13 km/hPartly Cloudy
9:00 AM31 °C21 °C55 %1009.1 hPa10 kmNNE (20°)11.1 km/hPartly Cloudy
10:00 AM32 °C21 °C52 %1009.1 hPa10 kmWNW (290°)14.8 km/hPartly Cloudy
11:00 AM32.2 °C20.6 °C41 %1008.8 hPa9.7 kmWest (280°)18 km/hHaze
11:00 AM32 °C21 °C52 %1009.1 hPa10 kmWNW (290°)16.7 km/hPartly Cloudy
12:00 PM32 °C22 °C55 %1008.1 hPa10 kmWest (280°)18.5 km/hPartly Cloudy
1:00 PM33 °C21 °C49 %1007.1 hPa10 kmWest (260°)16.7 km/hPartly Cloudy
2:00 PM33.3 °C21.1 °C39 %1006.1 hPa9.7 kmWest (260°)18 km/hPartly Cloudy
2:00 PM33 °C21 °C49 %1005.1 hPa10 kmWest (260°)18.5 km/hPartly Cloudy
3:00 PM34 °C19 °C41 %1004.1 hPa10 kmWest (260°)16.7 km/hPartly Cloudy
4:00 PM34 °C19 °C41 %1004.1 hPa10 kmWest (260°)16.7 km/hPartly Cloudy
5:00 PM32.2 °C21.7 °C44 %1003.7 hPa9.7 kmWSW (250°)14.3 km/hPartly Cloudy
5:00 PM33 °C22 °C52 %1004.1 hPa10 kmWSW (250°)13 km/hPartly Cloudy
6:00 PM32 °C23 °C59 %1004.1 hPa10 kmWest (260°)9.3 km/hPartly Cloudy
7:00 PM30 °C25 °C74 %1005.1 hPa10 kmWest (260°)5.6 km/hPartly Cloudy
8:00 PM31.7 °C23.3 °C52 %1006.4 hPa9.7 kmESE (110°)7.2 km/hHaze
8:00 PM31 °C23 °C62 %1006.1 hPa10 kmESE (110°)7.4 km/hPartly Cloudy
9:00 PM31 °C22 °C58 %1007.1 hPa10 kmSE (140°)9.3 km/hPartly Cloudy
10:00 PM30 °C23 °C66 %1008.1 hPa10 kmSE (140°)9.3 km/hPartly Cloudy
11:00 PM29.4 °C23.9 °C65 %1008.8 hPa9.7 kmSE (140°)7.2 km/hHaze
11:00 PM30 °C24 °C70 %1008.1 hPa10 kmSE (140°)9.3 km/hPartly Cloudy
Hourly data recorded from RPLL, located 0 kilometers away from Quezon City, Philippines







STORIES FROM OUR PARTNERS